Temperature
28 29 28 28 28 28 27 27 27 27 27 26 24 23 22 22 21 21 21 21 21 21 20 20 20 20 20 19 19 19 19 19 19 19 19 19 19 19 19 18 18 18 18 17
27 28 28 27 28 28 27 27 27 27 26 24 22 21 21 20 20 20 20 19 19 19 19 19 19 19 19 19 19 19 19 19 18 18 18 18 18 18 18 18 18 18 17 17
27 27 27 26 28 28 27 27 27 27 26 23 22 21 20 19 19 18 18 17 17 17 17 17 18 18 18 18 18 17 17 17 17 17 17 17 17 17 17 17 17 17 17 17
27 26 24 27 27 27 27 27 26 25 24 23 20 18 17 17 17 17 16 16 16 16 16 17 17 17 17 17 17 17 16 16 16 16 16 16 16 16 16 16 16 16 16 16
26 26 26 26 26 26 26 25 25 24 22 20 18 18 17 16 15 15 15 14 14 15 15 16 16 16 16 16 16 15 15 15 15 15 15 15 15 15 15 15 15 15 15 14
25 25 25 26 25 24 25 24 24 23 22 20 20 22 18 15 14 14 14 14 14 14 14 15 15 15 16 15 15 14 14 14 14 14 14 14 14 14 14 14 13 13 13 13
25 25 26 25 24 24 24 23 23 22 21 21 21 20 16 14 14 13 13 13 13 13 14 14 14 14 14 14 13 13 13 13 13 13 13 13 13 13 13 12 12 12 12 12
24 24 24 23 23 24 22 21 21 21 20 19 17 15 15 14 13 13 13 13 13 13 12 12 13 13 13 12 12 12 12 12 12 12 12 11 11 11 11 11 11 11 11 11
25 24 22 22 22 20 20 20 20 20 19 17 16 15 14 13 13 13 13 13 13 12 12 11 11 12 12 11 11 10 11 10 10 10 10 10 10 10 10 10 10 10 10 10
23 23 22 21 20 19 19 19 19 18 17 16 15 14 14 13 13 13 12 12 12 12 12 11 11 10 10 10 10 10 10 10 10 10 10 10 10 10 10 10 10 9 9 9
23 22 21 19 19 18 18 17 17 16 16 15 14 14 13 13 13 12 12 12 12 11 11 11 10 10 10 10 10 10 10 10 10 10 10 9 9 9 9 8 8 8 8 8
22 21 21 18 17 17 16 16 16 15 14 14 14 13 13 13 12 12 12 12 11 11 11 10 10 10 10 9 9 9 10 10 10 10 10 9 9 9 9 8 8 7 7 7
18 18 18 16 16 16 16 15 15 14 14 13 13 13 12 12 12 12 11 11 11 11 10 10 10 10 9 9 9 9 9 9 9 9 9 9 9 9 9 8 8 7 7 6
16 16 16 16 15 15 15 14 14 14 13 13 12 12 12 12 12 12 11 11 11 10 10 10 10 10 9 9 9 9 9 9 9 9 9 8 8 8 8 8 7 7 7 6
15 15 15 14 14 14 14 14 13 13 13 12 12 12 12 12 12 11 11 11 10 10 10 10 10 9 9 9 8 8 8 8 8 8 8 8 7 7 7 7 6 6 6 5
14 14 14 14 14 14 14 13 13 13 12 12 12 12 12 11 11 11 11 10 10 10 10 9 9 9 9 8 8 8 8 8 7 7 7 7 6 6 6 5 5 5 4 4
15 14 14 14 14 14 13 13 13 12 12 12 12 12 11 11 11 11 11 10 10 10 9 9 8 8 8 8 7 7 7 7 6 6 6 5 5 4 4 4 3 3 3 3
14 14 14 13 13 13 12 12 12 12 12 12 12 12 11 11 11 11 10 10 10 9 9 8 8 8 7 7 7 6 6 6 5 5 4 4 3 3 3 3 2 2 2 2
13 13 12 12 12 12 12 12 12 12 11 11 11 11 11 11 10 10 10 9 9 9 8 8 7 7 6 6 6 5 5 5 4 4 3 3 2 2 2 2 1 1 1 1
12 12 12 12 12 12 12 11 11 11 11 11 11 10 10 10 10 9 9 9 8 8 7 7 6 5 5 5 5 4 4 3 3 3 2 2 1 1 1 1 1 1 1 0
11 11 11 11 11 11 11 11 11 10 10 10 10 10 10 9 9 9 9 9 7 7 6 6 5 4 4 4 3 3 3 2 1 1 1 0 0 0 0 -0 -0 -0 0 0
11 11 11 11 11 11 10 10 10 10 10 9 9 9 9 9 9 8 7 7 6 6 5 4 4 4 4 3 2 2 1 0 0 -0 -0 -0 -0 -0 -1 -1 -0 -0 -0 -0
10 10 10 10 10 10 10 10 9 9 9 9 8 8 8 8 8 7 6 5 5 5 4 3 3 3 3 1 1 0 -0 -0 -1 -1 -1 -1 -1 -1 -1 -1 -1 -1 -1 -0
9 9 9 9 9 9 9 9 9 8 8 8 8 7 7 7 6 6 5 5 4 4 3 3 2 2 1 1 0 -0 -1 -1 -1 -1 -1 -1 -1 -1 -1 -1 -1 -1 -1 -1
9 9 9 9 9 9 9 8 8 8 8 7 7 6 6 6 5 4 4 3 3 3 2 2 1 1 0 -0 -1 -1 -1 -1 -1 -1 -1 -1 -1 -1 -1 -1 -1 -1 -1 -1
8 9 8 8 8 8 8 8 8 7 7 7 6 6 5 4 4 3 3 3 2 2 1 1 0 0 -0 -0 -1 -1 -1 -1 -1 -1 -1 -1 -1 -1 -1 -1 -1 -1 -1 -1
8 8 8 8 8 7 7 7 7 7 6 6 5 5 4 4 3 3 2 2 2 1 1 0 0 -0 -0 -1 -1 -1 -1 -1 -1 -1 -2 -1 -1 -1 -1 -2 -2 -1 -1 -1
Wind_Speed
9 5 6 8 8 9 10 10 10 8 6 2 3 4 4 3 3 4 4 4 4 6 7 8 8 8 9 9 9 10 10 11 11 10 10 10 10 10 11 11 12 12 12 12
10 9 9 9 10 10 11 10 10 9 4 5 5 5 6 6 6 7 6 5 4 3 2 2 3 4 5 5 6 7 8 8 7 7 7 8 9 9 9 10 10 11 12 12
11 8 9 12 11 10 9 8 8 8 2 9 8 8 8 8 10 10 9 9 9 8 7 5 4 2 2 2 1 2 3 3 4 4 5 6 7 7 8 8 9 10 11 12
10 7 13 5 2 3 7 6 4 2 8 10 11 11 10 10 11 12 11 12 12 11 10 10 9 8 6 6 5 4 3 1 1 1 2 2 3 4 5 6 7 8 10 11
9 11 11 5 3 3 5 5 4 7 12 14 15 14 12 10 11 12 12 11 11 11 12 12 12 11 11 10 10 8 7 5 5 4 2 2 2 3 3 4 5 7 8 9
8 10 9 1 5 2 4 5 6 10 14 15 14 7 8 9 11 12 11 11 10 11 12 12 12 12 13 12 11 10 9 8 8 7 6 5 4 4 4 4 5 7 7 8
10 10 6 5 5 4 5 1 7 10 13 13 7 6 14 13 12 11 11 11 10 11 11 11 11 11 12 11 10 9 8 9 9 8 6 6 6 5 5 5 5 6 7 8
6 8 4 6 4 2 3 4 6 9 11 11 15 18 16 14 12 10 10 10 11 10 10 9 9 10 11 10 8 8 8 9 9 8 8 7 6 6 6 6 6 6 7 8
3 1 5 4 2 4 3 5 7 10 13 17 19 18 16 14 11 10 9 9 9 9 9 9 8 9 9 8 6 7 7 8 7 7 7 7 7 6 6 5 7 7 8 8
2 3 4 3 3 3 4 7 10 13 17 18 18 17 15 12 10 9 8 7 7 8 8 7 7 7 7 6 6 6 6 6 6 6 7 7 7 7 7 8 8 9 9 10
4 2 3 4 3 6 9 12 14 16 17 17 17 15 13 11 9 7 6 6 5 5 5 5 5 5 5 5 5 6 6 7 7 7 7 7 7 6 7 7 6 8 10 10
3 2 1 5 7 10 13 15 17 18 17 15 14 13 11 9 7 6 5 4 4 4 4 4 4 4 5 5 5 6 7 8 8 8 8 8 9 9 5 7 6 9 11 11
2 3 6 10 11 13 15 16 17 17 17 15 13 11 9 7 5 4 3 3 3 3 3 3 3 3 4 5 5 6 8 8 9 9 9 10 10 11 12 9 9 12 14 14
7 9 11 12 13 14 16 17 17 16 15 13 11 9 7 5 4 3 2 2 1 1 2 3 3 4 5 5 6 7 9 7 8 9 10 11 11 12 12 13 14 12 10 10
5 6 12 15 15 16 16 16 15 13 12 10 8 6 5 4 2 2 1 1 1 2 3 4 4 5 5 7 8 9 9 9 9 10 11 11 11 12 12 14 14 14 14 12
10 14 16 16 16 15 15 14 12 10 9 7 6 4 3 1 1 0 1 1 3 4 4 4 5 6 6 7 9 9 8 4 6 10 11 11 11 12 12 13 14 13 14 14
14 15 16 15 15 13 12 10 9 8 6 5 4 2 1 0 1 2 3 3 4 4 4 4 5 6 7 7 9 9 10 9 7 10 10 10 11 12 12 13 13 13 13 13
13 13 14 13 12 11 9 8 6 5 3 2 1 0 1 2 3 4 5 5 4 3 3 5 5 6 6 7 8 9 9 10 10 10 10 10 11 12 12 13 14 14 14 14
14 14 13 12 10 8 6 5 3 2 1 1 2 2 3 4 4 5 5 5 5 4 4 5 3 5 6 8 9 8 9 10 10 10 10 10 11 11 12 13 13 13 14 14
14 12 11 10 8 6 4 3 3 2 2 2 3 3 4 5 5 5 5 4 5 6 5 5 5 6 7 8 10 8 9 10 10 10 11 11 12 12 12 13 13 13 13 13
11 10 9 7 5 4 3 3 3 3 3 3 4 4 4 5 5 5 5 3 6 5 4 2 5 7 8 9 9 8 9 9 10 10 10 11 11 12 12 12 13 13 12 13
7 6 5 4 3 3 3 2 3 3 3 4 4 4 4 4 4 3 5 5 5 4 4 5 7 9 11 11 7 8 9 9 9 9 10 10 11 11 11 12 12 12 12 12
4 4 3 3 3 2 2 2 3 3 4 4 4 4 5 5 5 4 3 5 5 4 5 7 8 9 13 8 7 8 9 9 9 9 10 10 10 11 11 12 11 11 12 12
3 3 3 3 3 3 3 4 4 3 3 3 3 4 4 3 3 5 6 7 6 4 6 7 6 9 10 6 7 8 8 9 9 9 10 10 10 10 10 11 11 12 12 13
3 3 3 3 4 3 3 3 4 3 3 2 3 4 4 4 4 5 6 6 5 3 5 5 1 7 7 8 8 8 8 8 9 9 9 10 10 10 10 11 11 12 12 12
3 3 3 4 4 4 5 5 4 4 3 2 3 3 4 5 6 5 5 5 5 4 5 5 5 5 7 7 7 8 8 8 9 9 10 10 11 11 11 12 14 12 12 12
3 3 3 4 3 4 5 5 4 4 3 2 2 3 4 5 5 4 4 4 4 5 5 5 6 6 7 7 8 8 8 8 9 9 10 10 10 11 12 13 12 12 12 13
Wind_Direction
251 241 228 236 232 223 239 267 281 292 297 18 50 53 58 72 104 124 137 155 182 199 202 205 209 214 220 224 225 223 220 223 225 224 224 225 224 222 220 218 220 221 225 228
234 227 231 242 245 243 249 260 267 273 277 96 100 90 77 72 82 91 92 92 94 101 133 171 198 204 209 219 223 219 223 229 231 228 226 226 224 222 222 224 227 226 228 232
237 216 231 244 244 246 248 250 264 272 180 139 122 94 80 76 78 76 76 75 73 70 67 60 55 69 105 114 140 176 210 229 228 228 233 237 237 231 230 232 234 234 236 238
244 223 245 259 79 261 261 256 247 192 141 136 119 103 85 79 83 80 75 72 70 70 69 67 63 62 66 75 75 76 69 54 41 239 244 252 250 250 249 247 247 246 247 247
242 242 249 205 169 215 238 238 200 167 145 137 133 120 91 80 81 81 77 73 71 70 71 69 68 68 67 66 63 57 51 44 38 34 31 13 332 303 286 275 267 264 262 261
233 253 260 238 117 155 235 219 161 164 159 159 168 163 117 104 94 87 81 77 75 74 71 67 66 69 70 63 58 51 46 46 46 41 35 28 16 356 337 307 290 285 280 274
235 245 253 91 124 180 238 101 146 167 170 175 175 106 123 120 107 100 93 87 80 73 70 67 67 68 68 63 57 50 48 49 46 40 38 31 19 9 354 336 322 307 300 293
234 243 235 117 155 220 56 99 153 161 159 142 118 117 123 121 116 108 101 94 88 81 75 68 67 73 73 65 56 53 50 46 43 35 25 24 16 7 356 342 321 310 306 300
239 94 92 129 102 82 110 128 141 145 139 132 130 128 126 122 118 112 103 96 92 91 84 75 67 66 69 66 57 50 45 39 33 28 24 15 2 354 343 338 326 323 318 312
243 131 114 123 125 132 135 133 133 132 132 132 129 128 127 124 120 115 106 98 92 86 82 75 67 63 61 55 42 33 27 18 11 5 1 5 346 344 341 337 334 330 323 317
240 135 127 115 123 132 128 126 125 125 126 128 127 127 127 125 124 120 113 100 87 81 76 70 63 55 46 37 20 9 1 352 343 342 345 333 329 327 322 327 334 315 316 315
307 77 133 123 128 133 132 129 128 126 123 122 121 121 120 119 120 118 110 101 85 69 58 48 45 44 34 19 5 349 341 339 334 330 332 323 320 315 281 267 244 238 250 271
47 86 106 121 126 130 128 126 126 124 123 121 118 119 119 122 126 120 109 90 70 51 38 25 14 11 8 359 347 339 328 328 325 325 324 320 318 315 313 298 250 240 241 244
110 112 116 122 122 124 123 123 121 118 118 118 120 121 123 129 128 119 98 73 52 24 6 358 350 352 348 338 328 322 316 319 315 317 317 314 314 312 310 310 311 309 287 258
110 119 126 123 122 123 122 122 119 119 118 118 121 127 130 127 124 122 102 47 345 327 342 342 340 346 342 331 326 319 315 318 327 320 312 312 314 312 311 311 311 312 312 307
115 119 124 124 124 124 124 122 120 122 123 126 132 136 134 135 142 225 297 305 317 334 341 336 336 342 338 330 324 314 312 326 316 313 312 317 320 318 317 316 314 314 314 316
124 125 126 125 123 120 117 116 119 123 130 136 141 147 168 265 309 324 320 321 318 321 329 336 339 339 337 336 328 322 324 324 315 309 322 326 324 320 318 316 315 316 314 319
115 115 117 117 114 112 111 115 123 129 134 137 148 180 317 322 331 337 330 326 317 319 0 8 1 342 347 354 340 327 324 325 328 328 328 327 326 318 317 318 318 317 315 316
106 106 105 104 105 109 115 118 121 109 74 30 349 339 329 327 331 329 327 322 322 334 19 23 357 341 356 4 341 320 329 332 332 332 330 329 322 324 325 322 320 319 318 319
100 99 98 96 94 92 91 82 65 49 30 6 346 341 337 339 338 333 332 346 25 21 27 17 358 6 358 2 339 333 340 339 337 336 336 333 331 328 325 324 323 321 319 318
96 96 95 91 85 75 63 46 34 24 9 352 341 335 333 335 340 342 332 5 63 34 26 28 16 14 3 344 320 343 351 349 344 343 340 335 332 330 329 326 323 321 321 321
91 86 80 70 61 53 38 18 9 357 354 351 343 340 334 333 347 20 54 43 64 18 5 31 30 19 348 325 351 0 359 354 349 344 339 335 333 332 330 329 326 325 324 324
73 64 52 40 34 25 7 355 356 352 349 349 350 351 350 357 357 355 47 64 63 26 33 46 25 356 325 341 10 6 2 356 351 346 342 339 337 335 333 330 330 329 328 329
50 38 25 9 348 329 334 343 345 343 337 334 2 9 350 347 38 55 79 92 63 31 57 64 15 338 324 14 16 10 4 359 355 352 348 345 342 339 338 336 335 335 334 333
25 6 354 333 314 324 331 315 305 305 309 350 30 39 24 30 55 76 84 85 76 30 56 84 56 328 10 25 18 11 6 6 359 350 349 348 345 343 342 341 341 339 339 338
1 338 352 341 338 322 317 319 321 330 336 357 31 50 60 72 83 87 87 86 79 59 42 39 36 18 27 24 20 13 8 5 1 358 356 351 348 348 346 345 344 344 341 340
297 297 294 300 311 322 323 323 325 334 349 7 36 70 77 81 85 83 82 73 62 52 45 41 36 31 27 24 22 17 13 9 5 2 358 356 354 350 348 347 346 345 345 344
Height
1471 1470 1473 1475 1477 1479 1483 1482 1484 1481 1480 1484 1490 1493 1496 1497 1498 1499 1500 1502 1504 1507 1509 1511 1513 1515 1517 1519 1521 1523 1524 1525 1526 1528 1529 1530 1532 1533 1534 1535 1536 1537 1537 1538
1475 1471 1473 1476 1474 1476 1477 1478 1478 1479 1482 1488 1494 1496 1498 1498 1499 1499 1501 1502 1504 1505 1507 1509 1510 1512 1513 1515 1517 1518 1519 1520 1522 1523 1524 1525 1526 1527 1528 1529 1530 1531 1531 1532
1475 1471 1476 1481 1471 1471 1473 1473 1476 1478 1481 1489 1494 1498 1500 1501 1501 1502 1503 1504 1504 1505 1506 1507 1508 1510 1510 1511 1513 1513 1514 1515 1517 1518 1519 1520 1521 1522 1522 1523 1524 1524 1525 1525
1472 1478 1492 1471 1467 1470 1472 1473 1476 1480 1485 1490 1497 1502 1504 1504 1505 1505 1506 1506 1506 1507 1507 1507 1508 1509 1509 1510 1511 1511 1512 1513 1513 1513 1514 1515 1516 1516 1517 1517 1518 1518 1518 1518
1472 1477 1475 1468 1469 1471 1474 1475 1477 1481 1488 1494 1499 1501 1506 1508 1508 1509 1509 1509 1509 1509 1509 1508 1508 1509 1510 1510 1510 1511 1511 1511 1510 1511 1511 1511 1511 1511 1511 1511 1511 1511 1511 1511
1473 1481 1483 1468 1469 1473 1474 1478 1479 1482 1488 1492 1495 1494 1507 1511 1511 1512 1512 1512 1512 1512 1511 1510 1509 1509 1510 1511 1510 1512 1512 1510 1509 1508 1508 1507 1507 1506 1506 1506 1506 1506 1506 1505
1470 1475 1468 1468 1472 1475 1481 1480 1480 1483 1487 1491 1493 1496 1507 1511 1512 1514 1514 1515 1514 1514 1513 1512 1511 1512 1511 1512 1512 1513 1512 1510 1508 1507 1506 1505 1504 1503 1502 1502 1501 1500 1500 1499
1470 1476 1474 1472 1473 1474 1478 1481 1481 1484 1488 1492 1497 1502 1507 1511 1514 1515 1516 1517 1516 1515 1515 1514 1514 1514 1513 1513 1513 1513 1512 1510 1508 1506 1506 1505 1503 1501 1500 1499 1498 1497 1495 1494
1464 1469 1472 1473 1475 1479 1480 1482 1483 1486 1490 1494 1499 1504 1509 1512 1515 1517 1518 1518 1518 1518 1517 1516 1516 1515 1514 1514 1514 1513 1512 1510 1508 1506 1505 1503 1501 1500 1499 1497 1496 1494 1492 1490
1465 1466 1472 1475 1478 1480 1482 1483 1486 1489 1493 1497 1501 1506 1510 1513 1516 1518 1519 1520 1519 1519 1518 1518 1517 1516 1515 1515 1514 1513 1512 1510 1508 1506 1504 1502 1500 1499 1497 1495 1493 1491 1489 1486
1466 1470 1474 1477 1479 1481 1483 1485 1488 1492 1496 1500 1504 1508 1511 1514 1517 1519 1520 1520 1520 1519 1519 1518 1518 1517 1516 1515 1513 1512 1511 1509 1507 1506 1503 1501 1499 1496 1494 1492 1489 1486 1484 1481
1467 1472 1473 1478 1481 1483 1485 1488 1491 1495 1499 1504 1507 1510 1513 1516 1518 1519 1520 1520 1519 1519 1519 1518 1517 1516 1515 1514 1513 1511 1510 1508 1506 1504 1501 1499 1496 1493 1490 1487 1484 1480 1477 1474
1474 1475 1476 1480 1483 1485 1488 1491 1495 1498 1502 1506 1509 1512 1515 1517 1518 1519 1519 1519 1519 1518 1518 1517 1517 1516 1514 1513 1511 1510 1508 1506 1504 1501 1498 1495 1492 1489 1485 1482 1479 1475 1471 1467
1477 1478 1480 1483 1485 1489 1492 1495 1499 1502 1506 1508 1511 1513 1516 1517 1518 1519 1519 1519 1518 1518 1517 1516 1515 1514 1513 1511 1510 1508 1506 1503 1501 1498 1495 1491 1488 1484 1481 1477 1473 1469 1466 1462
1479 1480 1483 1486 1489 1492 1496 1499 1502 1506 1508 1511 1513 1515 1516 1517 1518 1518 1518 1518 1517 1516 1516 1515 1514 1512 1511 1509 1507 1505 1502 1500 1496 1493 1490 1487 1483 1480 1476 1472 1467 1463 1459 1456
1481 1483 1487 1490 1493 1496 1499 1502 1505 1508 1510 1512 1514 1515 1516 1517 1517 1517 1517 1516 1516 1515 1514 1512 1511 1510 1508 1506 1503 1501 1498 1494 1491 1488 1485 1482 1478 1475 1471 1466 1462 1458 1453 1450
1485 1488 1491 1494 1497 1500 1503 1506 1508 1510 1512 1514 1515 1515 1516 1516 1516 1516 1515 1514 1513 1512 1511 1510 1508 1506 1504 1501 1499 1497 1494 1491 1487 1484 1481 1477 1473 1470 1466 1461 1457 1452 1448 1444
1490 1492 1495 1498 1501 1503 1506 1508 1510 1511 1512 1513 1514 1514 1514 1514 1514 1514 1513 1512 1511 1509 1508 1506 1504 1502 1500 1497 1494 1492 1489 1486 1483 1480 1476 1472 1468 1465 1461 1457 1452 1448 1443 1439
1494 1497 1499 1501 1504 1506 1508 1510 1511 1512 1512 1513 1513 1513 1513 1512 1512 1511 1510 1509 1508 1507 1505 1502 1500 1499 1496 1493 1490 1488 1485 1482 1479 1475 1472 1468 1464 1461 1457 1452 1448 1443 1438 1434
1498 1500 1502 1504 1506 1508 1509 1510 1511 1511 1512 1512 1511 1511 1511 1510 1509 1508 1507 1506 1504 1503 1501 1499 1497 1495 1493 1489 1486 1484 1482 1478 1475 1472 1468 1464 1461 1457 1452 1448 1444 1439 1434 1429
1502 1504 1505 1507 1508 1509 1510 1510 1511 1511 1510 1510 1510 1509 1509 1508 1507 1506 1504 1504 1501 1499 1498 1496 1494 1492 1489 1485 1483 1481 1478 1475 1472 1468 1465 1461 1457 1453 1449 1445 1440 1435 1431 1426
1505 1506 1507 1508 1509 1509 1509 1510 1510 1509 1509 1509 1508 1507 1507 1506 1504 1503 1501 1500 1498 1497 1496 1495 1492 1488 1485 1483 1482 1479 1476 1472 1469 1466 1462 1459 1455 1451 1446 1442 1437 1432 1428 1423
1506 1507 1508 1508 1509 1509 1509 1509 1508 1508 1507 1507 1506 1505 1504 1503 1502 1501 1500 1498 1496 1494 1494 1491 1488 1485 1482 1482 1480 1477 1474 1471 1468 1464 1461 1457 1453 1449 1444 1440 1435 1430 1425 1420
1507 1507 1508 1508 1508 1508 1508 1507 1506 1506 1505 1504 1503 1502 1502 1501 1500 1498 1496 1495 1494 1493 1492 1489 1486 1484 1482 1481 1478 1475 1473 1470 1467 1463 1460 1456 1452 1448 1443 1439 1434 1429 1424 1418
1507 1507 1507 1507 1506 1506 1505 1505 1504 1503 1503 1502 1501 1500 1499 1498 1498 1496 1495 1494 1492 1492 1491 1488 1485 1483 1482 1480 1478 1475 1473 1470 1466 1463 1459 1456 1451 1447 1443 1438 1433 1428 1423 1417
1506 1506 1505 1505 1505 1504 1503 1503 1502 1501 1500 1500 1499 1498 1497 1496 1495 1494 1494 1493 1492 1491 1490 1489 1487 1485 1483 1481 1478 1476 1473 1470 1467 1464 1460 1456 1452 1447 1443 1438 1433 1428 1423 1418
1505 1504 1504 1503 1502 1502 1501 1500 1500 1499 1498 1498 1497 1496 1496 1495 1494 1494 1494 1493 1493 1492 1491 1489 1488 1486 1484 1482 1480 1477 1474 1471 1468 1464 1460 1456 1452 1448 1443 1439 1434 1429 1424 1419